Location: Tamazert
(32.6352°N, 5.2072°W)
Time: 04:05:13
(UTC+00:00)

Cosmos 2181 Rocket - Pass Details

Date: 22 May 2022
Orbit: 951 x 1015 km, 82.9° (Epoch: 24 June)

Event Time Altitude Azimuth Distance (km) Brightness Sun altitude
Exits shadow 03:35:09 - 172° (S) 2,899 6.2 -19.0°
Reaches altitude 10° 03:35:34 10° 171° (S) 2,744 6.0 -19.0°
Maximum altitude 03:41:45 61° 92° (E) 1,100 4.5 -18.0°
Drops below altitude 10° 03:47:51 10° 14° (NNE) 2,715 7.1 -17.0°
Sets 03:50:22 0° 11° (N) 3,657 7.8 -16.6°
